Location: Suzhou
(31.3110°N, 120.6180°E)
Time: 20:34:02
(UTC+08:00)

FO-29 - Pass Details

Date: 19 April 2026
Orbit: 800 x 1320 km, 98.5° (Epoch: 11 May)

Event Time Altitude Azimuth Distance (km) Brightness Sun altitude
Rises 21:21:27 0° 357° (N) 4,176 13.4 -33.4°
Reaches altitude 10° 21:24:50 10° 344° (NNW) 3,134 12.8 -34.0°
Maximum altitude 21:30:03 22° 297° (WNW) 2,218 11.9 -34.8°
Drops below altitude 10° 21:34:52 10° 249° (WSW) 2,859 12.1 -35.5°
Sets 21:37:49 0° 234° (SW) 3,721 12.6 -35.9°
